time, Switch, Flow(0), Analog(2)
yyyy/mm/dd HH:MM:SS.fff, True=FILTERED|False=TOTAL, L/min, V
2023/06/06 07:00:01.714, True, 4.310, 0.127184
2023/06/06 07:00:02.218, True, 4.311, 0.128176
2023/06/06 07:00:02.714, True, 4.380, 0.127642
2023/06/06 07:00:03.218, True, 3.979, 0.128099
2023/06/06 07:00:03.722, True, 3.979, 0.131991
2023/06/06 07:00:04.218, True, 3.709, 0.130007
2023/06/06 07:00:04.722, True, 3.313, 0.128481
2023/06/06 07:00:05.226, True, 3.649, 0.129778
2023/06/06 07:00:05.722, True, 3.369, 0.129244
2023/06/06 07:00:06.226, True, 3.648, 0.129625
2023/06/06 07:00:06.730, True, 3.316, 0.128557
2023/06/06 07:00:07.234, True, 3.648, 0.128557
2023/06/06 07:00:07.730, True, 3.370, 0.129244
2023/06/06 07:00:08.234, True, 3.316, 0.128710
2023/06/06 07:00:08.730, True, 3.706, 0.129244
2023/06/06 07:00:09.234, True, 3.317, 0.130159
2023/06/06 07:00:09.738, True, 3.647, 0.130236
2023/06/06 07:00:10.234, True, 3.370, 0.131151
2023/06/06 07:00:10.738, True, 3.648, 0.130388
2023/06/06 07:00:11.242, True, 3.317, 0.129320
2023/06/06 07:00:11.746, True, 3.647, 0.130312
2023/06/06 07:00:12.242, True, 3.369, 0.127413
2023/06/06 07:00:12.746, True, 3.648, 0.127337
2023/06/06 07:00:13.250, True, 3.319, 0.127947
2023/06/06 07:00:13.746, True, 3.701, 0.129778
2023/06/06 07:00:14.250, True, 3.316, 0.128252
2023/06/06 07:00:14.754, True, 3.319, 0.130617
2023/06/06 07:00:15.250, True, 3.366, 0.130236
2023/06/06 07:00:15.754, True, 3.648, 0.130312
2023/06/06 07:00:16.258, True, 3.316, 0.127642
2023/06/06 07:00:16.754, True, 3.706, 0.131914
2023/06/06 07:00:17.258, True, 3.316, 0.130617
2023/06/06 07:00:17.762, True, 3.316, 0.129015
2023/06/06 07:00:18.258, True, 3.706, 0.128099
2023/06/06 07:00:18.762, True, 3.316, 0.129397
2023/06/06 07:00:19.266, True, 3.316, 0.130236
2023/06/06 07:00:19.762, True, 3.369, 0.129702
2023/06/06 07:00:20.266, True, 3.647, 0.130312
2023/06/06 07:00:20.770, True, 3.318, 0.127489
2023/06/06 07:00:21.266, True, 3.368, 0.129320
2023/06/06 07:00:21.770, True, 3.648, 0.128710
2023/06/06 07:00:22.274, True, 3.316, 0.130236
2023/06/06 07:00:22.770, True, 3.711, 0.128252
2023/06/06 07:00:23.274, True, 3.644, 0.132143
2023/06/06 07:00:23.778, True, 3.316, 0.131456
2023/06/06 07:00:24.274, True, 3.371, 0.132219
2023/06/06 07:00:24.778, True, 3.646, 0.133059
2023/06/06 07:00:25.282, True, 3.316, 0.132067
2023/06/06 07:00:25.778, True, 3.369, 0.131685
2023/06/06 07:00:26.282, True, 3.648, 0.133593
2023/06/06 07:00:26.786, True, 3.648, 0.131991
2023/06/06 07:00:27.282, True, 3.369, 0.135348
2023/06/06 07:00:27.786, True, 3.317, 0.132906
2023/06/06 07:00:28.290, True, 3.647, 0.135500
2023/06/06 07:00:28.786, True, 3.369, 0.132677
2023/06/06 07:00:29.290, True, 3.649, 0.134813
2023/06/06 07:00:29.794, True, 3.315, 0.131762
2023/06/06 07:00:30.290, True, 3.706, 0.133059
2023/06/06 07:00:30.794, True, 3.318, 0.132525
2023/06/06 07:00:31.298, True, 3.649, 0.134585
2023/06/06 07:00:31.794, True, 3.368, 0.133059
2023/06/06 07:00:32.298, True, 3.318, 0.131304
2023/06/06 07:00:32.802, True, 3.652, 0.133898
2023/06/06 07:00:33.298, True, 3.363, 0.134508
2023/06/06 07:00:33.802, True, 3.318, 0.135729
2023/06/06 07:00:34.306, True, 3.645, 0.131456
2023/06/06 07:00:34.802, True, 3.369, 0.135882
2023/06/06 07:00:35.306, True, 3.320, 0.136034
2023/06/06 07:00:35.802, True, 3.370, 0.135348
2023/06/06 07:00:36.306, True, 3.644, 0.133745
2023/06/06 07:00:36.810, True, 3.318, 0.134966
2023/06/06 07:00:37.313, True, 3.651, 0.134279
2023/06/06 07:00:37.810, True, 3.365, 0.135653
2023/06/06 07:00:38.314, True, 3.649, 0.136645
2023/06/06 07:00:38.818, True, 3.314, 0.134890
2023/06/06 07:00:39.313, True, 3.707, 0.135042
2023/06/06 07:00:39.818, True, 3.319, 0.135576
2023/06/06 07:00:40.322, True, 3.317, 0.134966
2023/06/06 07:00:40.826, True, 3.650, 0.134737
2023/06/06 07:00:41.321, True, 3.370, 0.134813
2023/06/06 07:00:41.826, True, 3.315, 0.136950
2023/06/06 07:00:42.322, True, 3.367, 0.136416
2023/06/06 07:00:42.825, True, 3.650, 0.134813
2023/06/06 07:00:43.330, True, 3.317, 0.135729
2023/06/06 07:00:43.826, True, 3.706, 0.136263
2023/06/06 07:00:44.330, True, 3.311, 0.135500
2023/06/06 07:00:44.833, True, 3.654, 0.133745
2023/06/06 07:00:45.338, True, 3.316, 0.137179
2023/06/06 07:00:45.834, True, 3.706, 0.136034
2023/06/06 07:00:46.338, True, 3.311, 0.136034
2023/06/06 07:00:46.842, True, 3.315, 0.136110
2023/06/06 07:00:47.338, True, 3.370, 0.135042
2023/06/06 07:00:47.842, True, 3.315, 0.135195
2023/06/06 07:00:48.346, True, 3.318, 0.134508
2023/06/06 07:00:48.842, True, 3.705, 0.135576
2023/06/06 07:00:49.346, True, 3.316, 0.134661
2023/06/06 07:00:49.850, True, 3.319, 0.135271
2023/06/06 07:00:50.346, True, 3.706, 0.134279
2023/06/06 07:00:50.850, True, 3.313, 0.134966
2023/06/06 07:00:51.354, True, 3.649, 0.134508
2023/06/06 07:00:51.858, True, 3.315, 0.134585
2023/06/06 07:00:52.354, True, 3.707, 0.135500
2023/06/06 07:00:52.858, True, 3.315, 0.134966
2023/06/06 07:00:53.362, True, 3.648, 0.135348
2023/06/06 07:00:53.858, True, 3.370, 0.135958
2023/06/06 07:00:54.362, True, 3.648, 0.134737
2023/06/06 07:00:54.866, True, 3.315, 0.135653
2023/06/06 07:00:55.362, True, 3.709, 0.135958
2023/06/06 07:00:55.866, True, 3.314, 0.134966
2023/06/06 07:00:56.362, True, 3.369, 0.135271
2023/06/06 07:00:56.865, True, 3.650, 0.135500
2023/06/06 07:00:57.370, True, 3.318, 0.135500
2023/06/06 07:00:57.874, True, 3.644, 0.135500
2023/06/06 07:00:58.370, True, 3.368, 0.134508
2023/06/06 07:00:58.874, True, 3.647, 0.135805
2023/06/06 07:00:59.378, True, 3.317, 0.136492
2023/06/06 07:00:59.874, True, 3.715, 0.134585
2023/06/06 07:01:00.378, True, 3.309, 0.133364
2023/06/06 07:01:00.882, True, 3.647, 0.134966
2023/06/06 07:01:01.378, True, 3.370, 0.135424
2023/06/06 07:01:01.882, True, 3.648, 0.136263
2023/06/06 07:01:02.378, True, 3.707, 0.133288
2023/06/06 07:01:02.882, True, 3.315, 0.135424
2023/06/06 07:01:03.386, True, 3.648, 0.136416
2023/06/06 07:01:03.881, True, 3.370, 0.135348
2023/06/06 07:01:04.385, True, 3.316, 0.133974
2023/06/06 07:01:04.890, True, 3.647, 0.135805
2023/06/06 07:01:05.386, True, 3.370, 0.135424
2023/06/06 07:01:05.890, True, 3.316, 0.133822
2023/06/06 07:01:06.394, True, 3.316, 0.135500
2023/06/06 07:01:06.898, True, 3.647, 0.136263
2023/06/06 07:01:07.393, True, 3.370, 0.135195
2023/06/06 07:01:07.898, True, 3.648, 0.136187
2023/06/06 07:01:08.402, True, 3.648, 0.135195
2023/06/06 07:01:08.898, True, 3.369, 0.135500
2023/06/06 07:01:09.402, True, 3.320, 0.133745
2023/06/06 07:01:09.906, True, 3.312, 0.136110
2023/06/06 07:01:10.402, True, 3.707, 0.133593
2023/06/06 07:01:10.906, True, 3.316, 0.132906
2023/06/06 07:01:11.410, True, 3.319, 0.133974
2023/06/06 07:01:11.906, True, 3.705, 0.135653
2023/06/06 07:01:12.410, True, 3.314, 0.134356
2023/06/06 07:01:12.906, True, 3.370, 0.131991
2023/06/06 07:01:13.410, True, 3.316, 0.135424
2023/06/06 07:01:13.913, True, 3.648, 0.133135
2023/06/06 07:01:14.418, True, 3.316, 0.134432
2023/06/06 07:01:14.914, True, 3.369, 0.134890
2023/06/06 07:01:15.418, True, 3.318, 0.134661
2023/06/06 07:01:15.921, True, 3.315, 0.134966
2023/06/06 07:01:16.418, True, 3.369, 0.133593
2023/06/06 07:01:16.922, True, 3.316, 0.134966
2023/06/06 07:01:17.426, True, 3.648, 0.133898
2023/06/06 07:01:17.922, True, 3.369, 0.133822
2023/06/06 07:01:18.426, True, 3.648, 0.134585
2023/06/06 07:01:18.929, True, 3.316, 0.132982
2023/06/06 07:01:19.426, True, 3.370, 0.134127
2023/06/06 07:01:19.930, True, 3.647, 0.133440
2023/06/06 07:01:20.434, True, 3.318, 0.133440
2023/06/06 07:01:20.930, True, 3.369, 0.135271
2023/06/06 07:01:21.434, True, 3.315, 0.135576
2023/06/06 07:01:21.938, True, 3.315, 0.134127
2023/06/06 07:01:22.434, True, 3.374, 0.133211
2023/06/06 07:01:22.938, True, 3.643, 0.134890
2023/06/06 07:01:23.442, True, 3.316, 0.135119
2023/06/06 07:01:23.938, True, 3.707, 0.133745
2023/06/06 07:01:24.442, True, 3.315, 0.132982
2023/06/06 07:01:24.946, True, 3.319, 0.133898
2023/06/06 07:01:25.442, True, 3.703, 0.134203
2023/06/06 07:01:25.946, True, 3.315, 0.135042
2023/06/06 07:01:26.450, True, 3.647, 0.135882
2023/06/06 07:01:26.946, True, 3.374, 0.132906
2023/06/06 07:01:27.449, True, 3.312, 0.133593
2023/06/06 07:01:27.954, True, 3.315, 0.134890
2023/06/06 07:01:28.450, True, 3.373, 0.131914
2023/06/06 07:01:28.954, True, 3.644, 0.131609
2023/06/06 07:01:29.450, True, 3.370, 0.134051
2023/06/06 07:01:29.954, True, 3.315, 0.134508
2023/06/06 07:01:30.458, True, 3.648, 0.134813
2023/06/06 07:01:30.962, True, 3.653, 0.133440
2023/06/06 07:01:31.458, True, 3.367, 0.134051
2023/06/06 07:01:31.962, True, 3.645, 0.130541
2023/06/06 07:01:32.466, True, 3.316, 0.131914
2023/06/06 07:01:32.962, True, 3.712, 0.133822
2023/06/06 07:01:33.466, True, 3.312, 0.133516
2023/06/06 07:01:33.970, True, 3.647, 0.131914
2023/06/06 07:01:34.465, True, 3.370, 0.133135
2023/06/06 07:01:34.970, True, 3.647, 0.132677
2023/06/06 07:01:35.466, True, 3.369, 0.132372
2023/06/06 07:01:35.970, True, 3.316, 0.131838
2023/06/06 07:01:36.474, True, 3.316, 0.132830
2023/06/06 07:01:36.970, True, 3.707, 0.130541
2023/06/06 07:01:37.474, True, 3.317, 0.133059
2023/06/06 07:01:37.978, True, 3.315, 0.134127
2023/06/06 07:01:38.474, True, 3.369, 0.132753
2023/06/06 07:01:38.978, True, 3.316, 0.133974
2023/06/06 07:01:39.482, True, 3.317, 0.132677
2023/06/06 07:01:39.978, True, 3.706, 0.134966
2023/06/06 07:01:40.482, True, 3.316, 0.132830
2023/06/06 07:01:40.986, True, 3.317, 0.132601
2023/06/06 07:01:41.482, True, 3.705, 0.133669
2023/06/06 07:01:41.986, True, 3.316, 0.133135
2023/06/06 07:01:42.490, True, 3.648, 0.133669
2023/06/06 07:01:42.986, True, 3.707, 0.133440
2023/06/06 07:01:43.490, True, 3.318, 0.134585
2023/06/06 07:01:43.994, True, 3.313, 0.133364
2023/06/06 07:01:44.490, True, 3.369, 0.133974
2023/06/06 07:01:44.994, True, 3.648, 0.132372
2023/06/06 07:01:45.498, True, 3.317, 0.131762
2023/06/06 07:01:45.994, True, 3.372, 0.133059
2023/06/06 07:01:46.498, True, 3.644, 0.132601
2023/06/06 07:01:47.002, True, 3.316, 0.133822
2023/06/06 07:01:47.505, True, 3.647, 0.132677
2023/06/06 07:01:48.002, True, 3.372, 0.130083
2023/06/06 07:01:48.506, True, 3.645, 0.134051
2023/06/06 07:01:49.009, True, 3.316, 0.133364
2023/06/06 07:01:49.506, True, 3.370, 0.132143
2023/06/06 07:01:50.010, True, 3.647, 0.134279
2023/06/06 07:01:50.513, True, 3.321, 0.131151
2023/06/06 07:01:51.010, True, 3.701, 0.133669
2023/06/06 07:01:51.514, True, 3.316, 0.132219
2023/06/06 07:01:52.018, True, 3.648, 0.133974
2023/06/06 07:01:52.522, True, 3.316, 0.132525
2023/06/06 07:01:53.018, True, 3.370, 0.131304
2023/06/06 07:01:53.522, True, 3.316, 0.134432
2023/06/06 07:01:54.018, True, 3.706, 0.132143
2023/06/06 07:01:54.522, True, 3.648, 0.133822
2023/06/06 07:01:55.026, True, 3.315, 0.132601
2023/06/06 07:01:55.530, True, 3.648, 0.132906
2023/06/06 07:01:56.026, True, 3.369, 0.132448
2023/06/06 07:01:56.530, True, 3.321, 0.132982
2023/06/06 07:01:57.026, True, 3.364, 0.132525
2023/06/06 07:01:57.530, True, 3.648, 0.131838
2023/06/06 07:01:58.033, True, 3.322, 0.131609
2023/06/06 07:01:58.538, True, 3.641, 0.132448
2023/06/06 07:01:59.034, True, 3.369, 0.132448
2023/06/06 07:01:59.537, True, 3.316, 0.132830
2023/06/06 07:02:00.041, True, 3.323, 0.131380
2023/06/06 07:02:00.538, True, 3.699, 0.133593
2023/06/06 07:02:01.041, True, 3.317, 0.131609
2023/06/06 07:02:01.545, True, 3.315, 0.131456
2023/06/06 07:02:02.049, True, 3.648, 0.132067
2023/06/06 07:02:02.545, True, 3.369, 0.133440
2023/06/06 07:02:03.050, True, 3.648, 0.130388
2023/06/06 07:02:03.553, True, 3.647, 0.130846
2023/06/06 07:02:04.049, True, 3.373, 0.130770
2023/06/06 07:02:04.553, True, 3.650, 0.131151
2023/06/06 07:02:05.057, True, 3.310, 0.131304
2023/06/06 07:02:05.554, True, 3.370, 0.131456
2023/06/06 07:02:06.057, True, 3.648, 0.131380
2023/06/06 07:02:06.561, True, 3.316, 0.131762
2023/06/06 07:02:07.058, True, 3.369, 0.130541
2023/06/06 07:02:07.561, True, 3.651, 0.130922
2023/06/06 07:02:08.065, True, 3.314, 0.132143
2023/06/06 07:02:08.561, True, 3.706, 0.132830
2023/06/06 07:02:09.065, True, 3.649, 0.130922
2023/06/06 07:02:09.570, True, 3.315, 0.130922
2023/06/06 07:02:10.065, True, 3.370, 0.134051
2023/06/06 07:02:10.569, True, 3.321, 0.131609
2023/06/06 07:02:11.073, True, 3.642, 0.130159
2023/06/06 07:02:11.568, True, 3.369, 0.133059
2023/06/06 07:02:12.073, True, 3.321, 0.132753
2023/06/06 07:02:12.577, True, 3.643, 0.133745
2023/06/06 07:02:13.073, True, 3.369, 0.133211
2023/06/06 07:02:13.577, True, 3.315, 0.133364
2023/06/06 07:02:14.073, True, 3.709, 0.129931
2023/06/06 07:02:14.577, True, 3.653, 0.129702
2023/06/06 07:02:15.082, True, 3.309, 0.134279
2023/06/06 07:02:15.577, True, 3.370, 0.131838
2023/06/06 07:02:16.081, True, 3.651, 0.133898
2023/06/06 07:02:16.585, True, 3.313, 0.131609
2023/06/06 07:02:17.089, True, 3.317, 0.131304
2023/06/06 07:02:17.585, True, 3.706, 0.133135
2023/06/06 07:02:18.089, True, 3.316, 0.131838
2023/06/06 07:02:18.593, True, 3.648, 0.132830
2023/06/06 07:02:19.089, True, 3.370, 0.134279
2023/06/06 07:02:19.593, True, 3.649, 0.133211
2023/06/06 07:02:20.097, True, 3.315, 0.133288
2023/06/06 07:02:20.593, True, 3.371, 0.132067
2023/06/06 07:02:21.097, True, 3.315, 0.130999
2023/06/06 07:02:21.601, True, 3.317, 0.132830
2023/06/06 07:02:22.097, True, 3.375, 0.130159
2023/06/06 07:02:22.601, True, 3.641, 0.133440
2023/06/06 07:02:23.105, True, 3.318, 0.129244
2023/06/06 07:02:23.609, True, 3.314, 0.132296
2023/06/06 07:02:24.105, True, 3.370, 0.130388
2023/06/06 07:02:24.609, True, 3.647, 0.130922
2023/06/06 07:02:25.105, True, 3.369, 0.132601
2023/06/06 07:02:25.609, True, 3.648, 0.132830
2023/06/06 07:02:26.113, True, 3.316, 0.130541
2023/06/06 07:02:26.617, True, 3.648, 0.130694
2023/06/06 07:02:27.113, True, 3.370, 0.132906
2023/06/06 07:02:27.617, True, 3.318, 0.131380
2023/06/06 07:02:28.121, True, 3.313, 0.130465
2023/06/06 07:02:28.617, True, 3.370, 0.129244
2023/06/06 07:02:29.121, True, 3.647, 0.130465
2023/06/06 07:02:29.625, True, 3.316, 0.132525
2023/06/06 07:02:30.121, True, 3.369, 0.130541
2023/06/06 07:02:30.625, True, 3.648, 0.131685
2023/06/06 07:02:31.129, True, 3.316, 0.131533
2023/06/06 07:02:31.625, True, 3.369, 0.130999
2023/06/06 07:02:32.129, True, 3.316, 0.132830
2023/06/06 07:02:32.633, True, 3.316, 0.129397
2023/06/06 07:02:33.129, True, 3.711, 0.130770
2023/06/06 07:02:33.633, True, 3.312, 0.129854
2023/06/06 07:02:34.137, True, 3.648, 0.130083
2023/06/06 07:02:34.633, True, 3.370, 0.131609
2023/06/06 07:02:35.137, True, 3.315, 0.131075
2023/06/06 07:02:35.641, True, 3.648, 0.130159
2023/06/06 07:02:36.137, True, 3.370, 0.130083
2023/06/06 07:02:36.641, True, 3.648, 0.131456
2023/06/06 07:02:37.136, True, 3.369, 0.130388
2023/06/06 07:02:37.641, True, 3.316, 0.129473
2023/06/06 07:02:38.145, True, 3.316, 0.129397
2023/06/06 07:02:38.641, True, 3.369, 0.129931
2023/06/06 07:02:39.145, True, 3.647, 0.129244
2023/06/06 07:02:39.649, True, 3.317, 0.130159
2023/06/06 07:02:40.145, True, 3.706, 0.130694
2023/06/06 07:02:40.649, True, 3.316, 0.131380
2023/06/06 07:02:41.153, True, 3.317, 0.131914
2023/06/06 07:02:41.649, True, 3.710, 0.130388
2023/06/06 07:02:42.153, True, 3.314, 0.131151
2023/06/06 07:02:42.657, True, 3.648, 0.130083
2023/06/06 07:02:43.153, True, 3.370, 0.131838
2023/06/06 07:02:43.657, True, 3.646, 0.131075
2023/06/06 07:02:44.161, True, 3.318, 0.132219
2023/06/06 07:02:44.657, True, 3.704, 0.128023
2023/06/06 07:02:45.161, True, 3.316, 0.131685
2023/06/06 07:02:45.657, True, 3.706, 0.131151
2023/06/06 07:02:46.161, True, 3.317, 0.132372
2023/06/06 07:02:46.665, True, 3.315, 0.130922
2023/06/06 07:02:47.161, True, 3.371, 0.130617
2023/06/06 07:02:47.665, True, 3.646, 0.130846
2023/06/06 07:02:48.169, True, 3.648, 0.128862
2023/06/06 07:02:48.665, True, 3.370, 0.129473
2023/06/06 07:02:49.169, True, 3.647, 0.128786
2023/06/06 07:02:49.673, True, 3.316, 0.130999
2023/06/06 07:02:50.177, True, 3.648, 0.129244
2023/06/06 07:02:50.673, True, 3.369, 0.128710
2023/06/06 07:02:51.177, True, 3.321, 0.129625
2023/06/06 07:02:51.681, True, 3.311, 0.130007
2023/06/06 07:02:52.177, True, 3.707, 0.130770
2023/06/06 07:02:52.681, True, 3.316, 0.130617
2023/06/06 07:02:53.185, True, 3.648, 0.131991
2023/06/06 07:02:53.681, True, 3.369, 0.130159
2023/06/06 07:02:54.185, True, 3.648, 0.129015
2023/06/06 07:02:54.689, True, 3.316, 0.131914
2023/06/06 07:02:55.185, True, 3.711, 0.130541
2023/06/06 07:02:55.689, True, 3.313, 0.129702
2023/06/06 07:02:56.193, True, 3.648, 0.130922
2023/06/06 07:02:56.689, True, 3.370, 0.131991
2023/06/06 07:02:57.193, True, 3.315, 0.129854
2023/06/06 07:02:57.697, True, 3.648, 0.128481
2023/06/06 07:02:58.193, True, 3.370, 0.128939
2023/06/06 07:02:58.697, True, 3.315, 0.130007
2023/06/06 07:02:59.201, True, 3.649, 0.131456
2023/06/06 07:02:59.697, True, 3.370, 0.132677
2023/06/06 07:03:00.201, True, 3.315, 0.130159
2023/06/06 07:03:00.705, True, 3.316, 0.129015
2023/06/06 07:03:01.201, True, 3.370, 0.129931
2023/06/06 07:03:01.705, True, 3.314, 0.130159
2023/06/06 07:03:02.201, True, 3.707, 0.128710
2023/06/06 07:03:02.705, True, 3.316, 0.131456
2023/06/06 07:03:03.209, True, 3.317, 0.130007
2023/06/06 07:03:03.705, True, 3.369, 0.130236
2023/06/06 07:03:04.209, True, 3.316, 0.130159
2023/06/06 07:03:04.713, True, 3.320, 0.130694
2023/06/06 07:03:05.209, True, 3.366, 0.128786
2023/06/06 07:03:05.713, True, 3.316, 0.129397
2023/06/06 07:03:06.217, True, 3.648, 0.130236
2023/06/06 07:03:06.721, True, 3.316, 0.129473
2023/06/06 07:03:07.217, True, 3.713, 0.130999
2023/06/06 07:03:07.721, True, 3.311, 0.129931
2023/06/06 07:03:08.217, True, 3.370, 0.128023
2023/06/06 07:03:08.721, True, 3.315, 0.127642
2023/06/06 07:03:09.225, True, 3.316, 0.131685
2023/06/06 07:03:09.721, True, 3.370, 0.131151
2023/06/06 07:03:10.225, True, 3.648, 0.130312
2023/06/06 07:03:10.729, True, 3.316, 0.129854
2023/06/06 07:03:11.224, True, 3.706, 0.130541
2023/06/06 07:03:11.729, True, 3.317, 0.133059
2023/06/06 07:03:12.233, True, 3.318, 0.131228
2023/06/06 07:03:12.729, True, 3.368, 0.131762
2023/06/06 07:03:13.233, True, 3.647, 0.129015
2023/06/06 07:03:13.737, True, 3.317, 0.129702
2023/06/06 07:03:14.233, True, 3.706, 0.129778
2023/06/06 07:03:14.737, True, 3.316, 0.130083
2023/06/06 07:03:15.241, True, 3.316, 0.128862
2023/06/06 07:03:15.745, True, 3.647, 0.133059
2023/06/06 07:03:16.241, True, 3.370, 0.131151
2023/06/06 07:03:16.745, True, 3.316, 0.131533
2023/06/06 07:03:17.249, True, 3.648, 0.129091
2023/06/06 07:03:17.745, True, 3.369, 0.130083
2023/06/06 07:03:18.249, True, 3.648, 0.130999
2023/06/06 07:03:18.753, True, 3.316, 0.132525
2023/06/06 07:03:19.249, True, 3.370, 0.128634
2023/06/06 07:03:19.753, True, 3.316, 0.130007
2023/06/06 07:03:20.257, True, 3.647, 0.129702
2023/06/06 07:03:20.753, True, 3.372, 0.130541
2023/06/06 07:03:21.257, True, 3.314, 0.130694
2023/06/06 07:03:21.753, True, 3.708, 0.128328
2023/06/06 07:03:22.257, True, 3.315, 0.128862
2023/06/06 07:03:22.761, True, 3.316, 0.130694
2023/06/06 07:03:23.257, True, 3.370, 0.129931
2023/06/06 07:03:23.761, True, 3.647, 0.130770
2023/06/06 07:03:24.265, True, 3.316, 0.129244
2023/06/06 07:03:24.761, True, 3.370, 0.129778
2023/06/06 07:03:25.265, True, 3.317, 0.132143
2023/06/06 07:03:25.769, True, 3.647, 0.129854
2023/06/06 07:03:26.265, True, 3.032, 0.130007
2023/06/06 07:03:26.769, True, 3.650, 0.130312
2023/06/06 07:03:27.272, True, 3.314, 0.131533
2023/06/06 07:03:27.769, True, 3.370, 0.130312
2023/06/06 07:03:28.273, True, 3.650, 0.128099
2023/06/06 07:03:28.777, True, 3.313, 0.130083
2023/06/06 07:03:29.273, True, 3.706, 0.130770
2023/06/06 07:03:29.777, True, 3.316, 0.129625
2023/06/06 07:03:30.280, True, 3.316, 0.127031
2023/06/06 07:03:30.777, True, 3.369, 0.132601
2023/06/06 07:03:31.281, True, 3.316, 0.130846
2023/06/06 07:03:31.784, True, 3.648, 0.130159
2023/06/06 07:03:32.280, True, 3.370, 0.131838
2023/06/06 07:03:32.785, True, 3.647, 0.130541
2023/06/06 07:03:33.289, True, 3.317, 0.128862
2023/06/06 07:03:33.785, True, 3.369, 0.128176
2023/06/06 07:03:34.289, True, 3.318, 0.130541
2023/06/06 07:03:34.793, True, 3.315, 0.128634
2023/06/06 07:03:35.289, True, 3.369, 0.131228
2023/06/06 07:03:35.792, True, 3.315, 0.130083
2023/06/06 07:03:36.297, True, 3.316, 0.129931
2023/06/06 07:03:36.801, True, 3.648, 0.130541
2023/06/06 07:03:37.297, True, 3.369, 0.129778
2023/06/06 07:03:37.800, True, 3.315, 0.131075
2023/06/06 07:03:38.305, True, 3.319, 0.128252
2023/06/06 07:03:38.800, True, 3.366, 0.128862
2023/06/06 07:03:39.304, True, 3.648, 0.128481
2023/06/06 07:03:39.809, True, 3.320, 0.128786
2023/06/06 07:03:40.305, True, 3.370, 0.130236
2023/06/06 07:03:40.808, True, 3.316, 0.130236
2023/06/06 07:03:41.313, True, 3.315, 0.130083
2023/06/06 07:03:41.809, True, 3.370, 0.128481
2023/06/06 07:03:42.312, True, 3.643, 0.129702
2023/06/06 07:03:42.817, True, 3.317, 0.132448
2023/06/06 07:03:43.321, True, 3.653, 0.130770
2023/06/06 07:03:43.817, True, 3.366, 0.131838
2023/06/06 07:03:44.321, True, 3.651, 0.129091
2023/06/06 07:03:44.824, True, 3.316, 0.130846
2023/06/06 07:03:45.320, True, 3.371, 0.130388
2023/06/06 07:03:45.824, True, 3.313, 0.130770
2023/06/06 07:03:46.328, True, 3.318, 0.129015
2023/06/06 07:03:46.833, True, 3.316, 0.127794
2023/06/06 07:03:47.328, True, 3.701, 0.132067
2023/06/06 07:03:47.833, True, 3.315, 0.129091
2023/06/06 07:03:48.337, True, 3.647, 0.129015
2023/06/06 07:03:48.833, True, 3.370, 0.130617
2023/06/06 07:03:49.337, True, 3.649, 0.131228
2023/06/06 07:03:49.841, True, 3.314, 0.130999
2023/06/06 07:03:50.336, True, 3.713, 0.131228
2023/06/06 07:03:50.841, True, 3.311, 0.128862
2023/06/06 07:03:51.345, True, 3.649, 0.128405
2023/06/06 07:03:51.840, True, 3.368, 0.127642
2023/06/06 07:03:52.345, True, 3.648, 0.130388
2023/06/06 07:03:52.849, True, 3.322, 0.132601
2023/06/06 07:03:53.345, True, 3.364, 0.130312
2023/06/06 07:03:53.849, True, 3.647, 0.128939
2023/06/06 07:03:54.353, True, 3.316, 0.129625
2023/06/06 07:03:54.857, True, 3.315, 0.129244
2023/06/06 07:03:55.353, True, 3.708, 0.128405
2023/06/06 07:03:55.857, True, 3.315, 0.129244
2023/06/06 07:03:56.361, True, 3.317, 0.126726
2023/06/06 07:03:56.857, True, 3.706, 0.130159
2023/06/06 07:03:57.361, True, 3.316, 0.129397
2023/06/06 07:03:57.865, True, 3.316, 0.130999
2023/06/06 07:03:58.361, True, 3.707, 0.130922
2023/06/06 07:03:58.865, True, 3.321, 0.130388
2023/06/06 07:03:59.369, True, 3.643, 0.128710
2023/06/06 07:03:59.872, True, 3.315, 0.127337
2023/06/06 07:04:00.369, True, 3.708, 0.129397
2023/06/06 07:04:00.873, True, 3.315, 0.129015
2023/06/06 07:04:01.368, True, 3.375, 0.130236
2023/06/06 07:04:01.873, True, 3.643, 0.129549
2023/06/06 07:04:02.377, True, 3.646, 0.129473
2023/06/06 07:04:02.873, True, 3.032, 0.130083
2023/06/06 07:04:03.377, True, 3.316, 0.132067
2023/06/06 07:04:03.881, True, 3.316, 0.130159
2023/06/06 07:04:04.377, True, 3.370, 0.128328
2023/06/06 07:04:04.881, True, 3.316, 0.130922
2023/06/06 07:04:05.385, True, 3.647, 0.131228
2023/06/06 07:04:05.881, True, 3.370, 0.130159
2023/06/06 07:04:06.384, True, 3.650, 0.130465
2023/06/06 07:04:06.889, True, 3.314, 0.131456
2023/06/06 07:04:07.393, True, 3.647, 0.129397
2023/06/06 07:04:07.889, True, 3.370, 0.129244
2023/06/06 07:04:08.392, True, 3.315, 0.128710
2023/06/06 07:04:08.897, True, 3.648, 0.130312
2023/06/06 07:04:09.393, True, 3.706, 0.131151
2023/06/06 07:04:09.896, True, 3.316, 0.130083
2023/06/06 07:04:10.392, True, 3.371, 0.131151
2023/06/06 07:04:10.897, True, 3.646, 0.129091